Location: Heidgraben
(53.7081°N, 9.6576°E)
Time: 23:13:06
(UTC+00:00)

Cosmos 1892 - Visible Passes

Search period start: 20 October 2020 00:00
Search period end: 30 October 2020 00:00
Orbit: 504 x 524 km, 82.5° (Epoch: 20 October)

Date Brightness Start Highest point End Pass type
(mag) Time Alt. Az. Time Alt. Az. Time Alt. Az.
20 Oct 3.7 17:39:01 10° N 17:42:17 25° ENE 17:42:50 24° E visible
20 Oct 4.2 19:14:30 10° NNW 19:17:51 36° W 19:17:51 36° W visible
21 Oct 4.0 17:23:36 10° NNE 17:26:42 22° ENE 17:27:56 19° E visible
21 Oct 3.8 18:58:54 10° NNW 19:02:35 43° W 19:02:57 42° WSW visible
22 Oct 4.1 17:08:15 10° NNE 17:11:05 19° ENE 17:13:09 13° ESE visible
22 Oct 3.5 18:43:18 10° NNW 18:47:05 52° W 18:48:10 38° SW visible
23 Oct 4.3 16:52:55 10° NNE 16:55:28 17° ENE 16:58:01 10° ESE visible
23 Oct 3.1 18:27:43 10° NNW 18:31:35 62° W 18:33:35 26° S visible
24 Oct 4.5 16:37:38 10° NNE 16:39:50 14° ENE 16:42:02 10° E visible
24 Oct 2.8 18:12:10 10° NNW 18:16:03 75° W 18:19:18 14° S visible
25 Oct 2.6 17:56:37 10° NNW 18:00:31 90° W 18:04:24 10° S visible
25 Oct 6.1 19:34:31 10° WNW 19:35:32 11° W 19:36:33 10° W visible
26 Oct 2.6 17:41:05 10° N 17:44:59 76° ENE 17:48:52 10° SSE visible
26 Oct 5.9 19:18:19 10° NW 19:20:06 13° W 19:21:53 10° WSW visible
27 Oct 2.7 17:25:34 10° N 17:29:27 63° ENE 17:33:18 10° SSE visible
27 Oct 5.8 19:02:23 10° NW 19:04:39 15° W 19:06:56 10° WSW visible
28 Oct 2.8 17:10:04 10° N 17:13:53 53° ENE 17:17:42 10° SSE visible
28 Oct 5.6 18:46:33 10° NW 18:49:12 18° W 18:51:51 10° SW visible
29 Oct 5.9 05:32:39 10° ESE 05:34:51 15° E 05:37:04 10° NE visible
29 Oct 3.0 16:54:34 10° N 16:58:19 44° ENE 17:02:03 10° SSE visible
29 Oct 5.4 18:30:48 10° NW 18:33:45 21° W 18:36:40 10° SW visible
